Home > Weather > St. Croix Falls > Past weeks

Flag for U.S.A. Weather for the Past 2 Weeks in St. Croix Falls, Wisconsin, U.S.A.

Now
26 °F

Mostly cloudy.


Feels Like: 16 °F
Forecast: 18 / 33 °F
Wind: 12 mph from South

Location: L O Simenstad Municipal Airport

Current Time: Feb 5, 2016 at 6:32:58 PM

Latest Report: Feb 5, 2016 at 5:35 PM


Visibility: 10 mi

Pressure: 30.23 "Hg

Humidity: 67%

Dew point: 17 °F

Location of St. Croix FallsLocation

Historic Weather in St. Croix Falls — Graph

°F

St. Croix Falls Temperature Yesterday

Maximum temperature yesterday: 25 °F (at 5:15 PM)
Minimum temperature yesterday: -3 °F (at 1:55 AM)
Average temperature yesterday: 11 °F

High & Low Weather Summary for the Past Weeks

 TemperatureHumidityPressure
High42 °F (Jan 30, 12:55 PM)100% (Jan 23, 10:55 PM)30.49 "Hg (Jan 23, 10:55 PM)
Low-5 °F (Feb 5, 4:35 AM)46% (Feb 3, 2:15 PM)29.50 "Hg (Jan 30, 1:15 AM)
Average24 °F85%29.95 "Hg
* Reported Jan 21 4:15 PM — Feb 5 4:35 PM, St. Croix Falls, Weather by CustomWeather, © 2016

Note: Actual official high and low records may vary slightly from our data, if they occured in-between our weather recording intervals... More about our weather records

Advertising

St. Croix Falls Weather History for the Previous 24 Hours

 ConditionsComfort  
Time TempWeatherWind HumidityBarometerVisibility
4:35 PM
Fri, Feb 5
26 °FMore clouds than sun.10 mph68%30.23 "Hg10 mi
4:15 PM26 °FBroken clouds.9 mph68%30.25 "Hg10 mi
3:55 PM27 °FMore clouds than sun.8 mph64%30.26 "Hg10 mi
3:35 PM27 °FOvercast.8 mph63%30.26 "Hg10 mi
3:15 PM27 °FOvercast.8 mph64%30.26 "Hg10 mi
2:55 PM27 °FOvercast.9 mph63%30.26 "Hg10 mi
2:35 PM26 °FPartly sunny.7 mph67%30.26 "Hg10 mi
2:15 PM26 °FScattered clouds.7 mph69%30.27 "Hg10 mi
1:55 PM25 °FSunny.7 mph70%30.28 "Hg10 mi
1:35 PM23 °FScattered clouds.8 mph70%30.28 "Hg10 mi
1:15 PM22 °FScattered clouds.8 mph71%30.29 "Hg10 mi
12:55 PM22 °FScattered clouds.8 mph71%30.31 "Hg10 mi
12:35 PM21 °FBroken clouds.8 mph71%30.32 "Hg10 mi
12:15 PM20 °FBroken clouds.8 mph74%30.32 "Hg10 mi
11:55 AM18 °FSunny.10 mph83%30.33 "Hg10 mi
11:35 AM17 °FSunny.8 mph100%30.34 "Hg10 mi
11:15 AM16 °FSunny.10 mph100%30.34 "Hg10 mi
10:55 AM15 °FSunny.6 mph99%30.35 "Hg10 mi
10:35 AM14 °FSunny.8 mph98%30.36 "Hg10 mi
10:15 AM12 °FSunny.6 mph92%30.36 "Hg10 mi
9:35 AM7 °FSunny.No wind89%30.36 "Hg10 mi
9:15 AM4 °FSunny.No wind88%30.36 "Hg10 mi
8:55 AM0 °FSunny.3 mph85%30.36 "Hg10 mi
8:35 AM-1 °FSunny.3 mph84%30.36 "Hg10 mi
8:15 AM-2 °FSunny.No wind84%30.36 "Hg10 mi
7:55 AM-2 °FSunny.No wind84%30.36 "Hg10 mi
7:35 AM-3 °FIce fog.No wind84%30.35 "Hg1 mi
7:15 AM-5 °FClear.No wind83%30.35 "Hg10 mi
6:55 AM-4 °FClear.No wind83%30.35 "Hg10 mi
6:15 AM-5 °FClear.No wind83%30.34 "Hg10 mi
5:55 AM-4 °FClear.No wind83%30.35 "Hg10 mi
5:35 AM-4 °FClear.No wind82%30.35 "Hg10 mi
5:15 AM-4 °FClear.No wind83%30.35 "Hg10 mi
4:55 AM-4 °FClear.No wind83%30.35 "Hg10 mi
4:35 AM-5 °FClear.No wind83%30.35 "Hg10 mi
4:15 AM-4 °FClear.No wind81%30.36 "Hg10 mi
3:55 AM-3 °FClear.No wind84%30.34 "Hg10 mi
3:35 AM-3 °FClear.No wind83%30.33 "Hg10 mi
3:15 AM-3 °FClear.No wind82%30.32 "Hg10 mi
2:55 AM-4 °FPassing clouds.No wind83%30.33 "Hg10 mi
2:35 AM-3 °FPassing clouds.No wind84%30.33 "Hg10 mi
2:15 AM-3 °FPassing clouds.No wind83%30.33 "Hg10 mi
1:55 AM-2 °FClear.No wind84%30.32 "Hg10 mi
1:35 AM-3 °FClear.No wind84%30.32 "Hg10 mi
1:15 AM-3 °FClear.No wind83%30.32 "Hg10 mi
12:55 AM-3 °FClear.No wind83%30.32 "Hg10 mi
12:35 AM-2 °FClear.No wind84%30.31 "Hg10 mi
12:15 AM-1 °FClear.No wind85%30.31 "Hg10 mi
11:35 PM
Thu, Feb 4
-3 °FClear.No wind83%30.30 "Hg10 mi
11:15 PM1 °FClear.No wind87%30.29 "Hg10 mi
10:55 PM0 °FClear.No wind85%30.28 "Hg10 mi
10:15 PM1 °FIce fog.No wind85%30.26 "Hg2 mi
9:55 PM0 °FIce fog.No wind85%30.26 "Hg0 mi
9:15 PM3 °FIce fog.No wind85%30.24 "Hg1 mi
8:15 PM4 °FIce fog.No wind87%30.22 "Hg0 mi
7:55 PM6 °FIce fog.No wind88%30.22 "Hg1 mi
7:15 PM13 °FPassing clouds.No wind86%30.21 "Hg10 mi
6:55 PM21 °FPassing clouds.3 mph83%30.21 "Hg10 mi
6:15 PM23 °FOvercast.No wind78%30.21 "Hg10 mi
Weather by CustomWeather, © 2016

See weather overviewHow to use our weather pages